Tracking 28790 objects as of 19-Apr-2024
HD Live streaming from Space Station
objects crossing your sky now

CSO 2

Track CSO 2 now!
10-day predictions


NORAD ID: 47305
Int'l Code: 2020-104A
Perigee: 488.4 km
Apogee: 496.0 km
Inclination: 97.4 °
Period: 94.3 minutes
Semi major axis: 6863 km
RCS: Unknown
Launch date: December 29, 2020
Source: France (FR)
Launch site: FRENCH GUIANA (FRGUI)
Your satellite tracking list
Your tracking list is empty




NASA's NSSDC Master Catalog

Two Line Element Set (TLE):
1 47305U 20104A   23265.04877420 0.00000000  00000-0  00000-0 0    09
2 47305  97.3627 204.0980 0005513 123.0391 236.9837 15.26902131    09
Source of the keplerian elements: McCants